Weather History for KPTB - November, 2012

Change the Weather History Date:

Friday, November 2, 2012

  Actual Average (KRIC) Record (KRIC)
Temperature  
Mean Temperature 46 °F 55 °F  
Max Temperature 59 °F 66 °F 84 °F (1950)
Min Temperature 33 °F 43 °F 23 °F (1930)
Degree Days  
Heating Degree Days 19 11  
Month to date heating degree days 21  
Since 1 July heating degree days 254  
Cooling Degree Days 0 0  
Month to date cooling degree days 0  
Year to date cooling degree days 1543  
Moisture  
Dew Point 32 °F    
Average Humidity 65    
Maximum Humidity 100    
Minimum Humidity 29    
Precipitation  
Precipitation 0.00 in 0.11 in 1.66 in (1956)
Month to date precipitation 0.22  
Year to date precipitation 37.32  
Snow  
Snow 0.00 in 0.00 in 0.00 in (2002)
Since 1 July snowfall 0.0  
Snow Depth -    
Sea Level Pressure  
Sea Level Pressure 29.84 in    
Wind  
Wind Speed 6 mph (West)    
Max Wind Speed 16 mph    
Max Gust Speed 24 mph    
Visibility 10 miles    
Events      
T = Trace of Precipitation, MM = Missing Value Source: NWS Daily Summary

Daily Weather History Graph

Daily Weather History Graph

Search for Another Location

Airport or City:

Trip Planner

Search our weather history database for the weather conditions in past years. The results will help you decide how hot, cold, wet, or windy it might be!

Date:

Astronomy

Nov. 02, 2012 Rise Set
Actual Time 7:35 AM EDT 6:10 PM EDT
Civil Twilight 7:08 AM EDT 6:37 PM EDT
Nautical Twilight 6:38 AM EDT 7:08 PM EDT
Astronomical Twilight 6:07 AM EDT 7:38 PM EDT
Moon 8:58 PM EDT (11/2) 10:52 AM EDT (11/2)
Length of Visible Light 11h 28m
Length of Day
10h 34m
Waning Gibbous, 87% of the Moon is Illuminated
Nov 2
Waning Gibbous
Nov 6
Last Quarter
Nov 13
New
Nov 20
First Quarter
Nov 28
Full

Hourly Weather History & Observations

Time (EDT) Temp. Windchill Dew Point Humidity Pressure Visibility Wind Dir Wind Speed Gust Speed Precip Events Conditions
12:15 AM 44.6 °F 40.7 °F 33.8 °F 66% 29.81 in 10.0 mi West 6.9 mph - N/A   Unknown
12:35 AM 44.6 °F 41.4 °F 33.8 °F 66% 29.81 in 10.0 mi West 5.8 mph - N/A   Unknown
12:55 AM 44.6 °F 41.4 °F 33.8 °F 66% 29.81 in 10.0 mi West 5.8 mph - N/A   Unknown
1:15 AM 42.8 °F 40.1 °F 33.8 °F 70% 29.81 in 10.0 mi West 4.6 mph - N/A   Unknown
1:35 AM 41.0 °F 37.1 °F 33.8 °F 76% 29.81 in 10.0 mi WSW 5.8 mph - N/A   Unknown
1:55 AM 39.2 °F 35.9 °F 33.8 °F 81% 29.81 in 10.0 mi WSW 4.6 mph - N/A   Unknown
2:15 AM 39.2 °F 37.0 °F 33.8 °F 81% 29.82 in 10.0 mi WSW 3.5 mph - N/A   Unknown
2:35 AM 37.4 °F 34.9 °F 33.8 °F 87% 29.82 in 10.0 mi WSW 3.5 mph - N/A   Unknown
2:55 AM 39.2 °F 37.0 °F 35.6 °F 87% 29.82 in 10.0 mi SW 3.5 mph - N/A   Unknown
3:15 AM 39.2 °F - 33.8 °F 81% 29.81 in 10.0 mi Calm Calm - N/A   Unknown
3:35 AM 35.6 °F - 33.8 °F 93% 29.81 in 10.0 mi Calm Calm - N/A   Unknown
3:55 AM 35.6 °F 31.7 °F 33.8 °F 93% 29.81 in 10.0 mi SW 4.6 mph - N/A   Unknown
4:15 AM 37.4 °F 33.8 °F 33.8 °F 87% 29.80 in 10.0 mi SW 4.6 mph - N/A   Unknown
4:35 AM 37.4 °F 32.8 °F 33.8 °F 87% 29.81 in 10.0 mi WSW 5.8 mph - N/A   Unknown
4:55 AM 39.2 °F 34.2 °F 33.8 °F 81% 29.81 in 10.0 mi WSW 6.9 mph - N/A   Unknown
5:15 AM 39.2 °F 33.6 °F 33.8 °F 81% 29.81 in 10.0 mi WSW 8.1 mph - N/A   Unknown
5:35 AM 39.2 °F 33.6 °F 33.8 °F 81% 29.82 in 10.0 mi WSW 8.1 mph - N/A   Unknown
5:55 AM 39.2 °F 34.2 °F 33.8 °F 81% 29.82 in 10.0 mi WSW 6.9 mph - N/A   Unknown
6:15 AM 39.2 °F 34.2 °F 33.8 °F 81% 29.82 in 10.0 mi WSW 6.9 mph - N/A   Unknown
6:35 AM 39.2 °F 35.0 °F 33.8 °F 81% 29.82 in 10.0 mi WSW 5.8 mph - N/A   Unknown
6:55 AM 41.0 °F 37.1 °F 33.8 °F 76% 29.82 in 10.0 mi WSW 5.8 mph - N/A   Unknown
7:15 AM 41.0 °F 37.1 °F 33.8 °F 76% 29.82 in 10.0 mi WSW 5.8 mph - N/A   Unknown
7:35 AM 41.0 °F 38.0 °F 33.8 °F 76% 29.83 in 10.0 mi SW 4.6 mph - N/A   Unknown
7:55 AM 42.8 °F 38.6 °F 33.8 °F 70% 29.83 in 10.0 mi SW 6.9 mph - N/A   Unknown
8:15 AM 42.8 °F 39.3 °F 33.8 °F 70% 29.84 in 10.0 mi SW 5.8 mph - N/A   Unknown
8:35 AM 42.8 °F 39.3 °F 32.0 °F 66% 29.83 in 10.0 mi WSW 5.8 mph - N/A   Unknown
8:55 AM 44.6 °F 42.2 °F 32.0 °F 61% 29.83 in 10.0 mi SW 4.6 mph - N/A   Unknown
9:15 AM 46.4 °F 42.9 °F 32.0 °F 57% 29.83 in 10.0 mi WSW 6.9 mph - N/A   Unknown
9:35 AM 48.2 °F - 30.2 °F 50% 29.84 in 10.0 mi WSW 8.1 mph - N/A   Unknown
9:55 AM 50.0 °F - 30.2 °F 47% 29.84 in 10.0 mi WSW 9.2 mph - N/A   Unknown
10:15 AM 51.8 °F - 30.2 °F 44% 29.83 in 10.0 mi WSW 6.9 mph - N/A   Unknown
10:35 AM 51.8 °F - 32.0 °F 47% 29.84 in 10.0 mi West 5.8 mph - N/A   Unknown
10:55 AM 53.6 °F - 30.2 °F 41% 29.84 in 10.0 mi West 6.9 mph - N/A   Mostly Cloudy
11:15 AM 53.6 °F - 30.2 °F 41% 29.84 in 10.0 mi WNW 8.1 mph - N/A   Scattered Clouds
11:35 AM 55.4 °F - 30.2 °F 38% 29.84 in 10.0 mi WNW 5.8 mph - N/A   Scattered Clouds
11:55 AM 57.2 °F - 28.4 °F 33% 29.83 in 10.0 mi WNW 8.1 mph - N/A   Clear
12:15 PM 57.2 °F - 28.4 °F 33% 29.83 in 10.0 mi West 5.8 mph - N/A   Clear
12:35 PM 59.0 °F - 28.4 °F 31% 29.82 in 10.0 mi WSW 13.8 mph 17.3 mph N/A   Clear
12:55 PM 57.2 °F - 30.2 °F 36% 29.82 in 10.0 mi WSW 13.8 mph 23.0 mph N/A   Scattered Clouds
1:15 PM 57.2 °F - 28.4 °F 33% 29.80 in 10.0 mi West 16.1 mph 19.6 mph N/A   Mostly Cloudy
1:35 PM 57.2 °F - 30.2 °F 36% 29.80 in 10.0 mi WSW 10.4 mph - N/A   Scattered Clouds
1:55 PM 59.0 °F - 30.2 °F 34% 29.79 in 10.0 mi West 6.9 mph - N/A   Scattered Clouds
2:15 PM 57.2 °F - 26.6 °F 31% 29.79 in 10.0 mi WNW 10.4 mph 18.4 mph N/A   Scattered Clouds
2:35 PM 57.2 °F - 26.6 °F 31% 29.79 in 10.0 mi NW 15.0 mph 21.9 mph N/A   Scattered Clouds
2:55 PM 59.0 °F - 26.6 °F 29% 29.79 in 10.0 mi WNW 15.0 mph 24.2 mph N/A   Scattered Clouds
3:15 PM 59.0 °F - 26.6 °F 29% 29.80 in 10.0 mi West 10.4 mph 18.4 mph N/A   Scattered Clouds
3:35 PM 59.0 °F - 26.6 °F 29% 29.80 in 10.0 mi West 9.2 mph - N/A   Clear
3:55 PM 57.2 °F - 26.6 °F 31% 29.81 in 10.0 mi West 10.4 mph - N/A   Clear
4:15 PM 59.0 °F - 26.6 °F 29% 29.81 in 10.0 mi West 9.2 mph - N/A   Clear
4:35 PM 57.2 °F - 26.6 °F 31% 29.82 in 10.0 mi WNW 8.1 mph - N/A   Clear
4:55 PM 57.2 °F - 26.6 °F 31% 29.82 in 10.0 mi West 9.2 mph - N/A   Clear
5:15 PM 57.2 °F - 26.6 °F 31% 29.83 in 10.0 mi WNW 5.8 mph - N/A   Clear
5:35 PM 55.4 °F - 26.6 °F 33% 29.84 in 10.0 mi WNW 3.5 mph - N/A   Clear
5:55 PM 55.4 °F - 28.4 °F 36% 29.84 in 10.0 mi Calm Calm - N/A   Clear
6:15 PM 44.6 °F - 37.4 °F 76% 29.85 in 10.0 mi Calm Calm - N/A   Clear
6:35 PM 44.6 °F - 37.4 °F 76% 29.86 in 10.0 mi Calm Calm - N/A   Clear
6:55 PM 44.6 °F - 37.4 °F 76% 29.87 in 10.0 mi Calm Calm - N/A   Clear
7:15 PM 42.8 °F - 37.4 °F 81% 29.88 in 10.0 mi Calm Calm - N/A   Clear
7:35 PM 39.2 °F - 35.6 °F 87% 29.89 in 10.0 mi Calm Calm - N/A   Unknown
7:55 PM 39.2 °F - 35.6 °F 87% 29.89 in 10.0 mi Calm Calm - N/A   Unknown
8:15 PM 39.2 °F - 35.6 °F 87% 29.90 in 10.0 mi Calm Calm - N/A   Unknown
8:35 PM 37.4 °F - 35.6 °F 93% 29.91 in 10.0 mi Calm Calm - N/A   Unknown
8:55 PM 39.2 °F 37.0 °F 35.6 °F 87% 29.92 in 10.0 mi NNW 3.5 mph - N/A   Unknown
9:15 PM 39.2 °F - 35.6 °F 87% 29.92 in 10.0 mi Calm Calm - N/A   Unknown
9:35 PM 35.6 °F - 35.6 °F 100% 29.93 in 10.0 mi Calm Calm - N/A   Unknown
9:55 PM 35.6 °F - 33.8 °F 93% 29.93 in 10.0 mi Calm Calm - N/A   Unknown
10:15 PM 35.6 °F - 33.8 °F 93% 29.94 in 10.0 mi Calm Calm - N/A   Unknown
10:35 PM 35.6 °F - 33.8 °F 93% 29.94 in 10.0 mi Calm Calm - N/A   Unknown
10:55 PM 33.8 °F - 32.0 °F 93% 29.95 in 10.0 mi Calm Calm - N/A   Unknown
11:15 PM 35.6 °F - 33.8 °F 93% 29.95 in 10.0 mi Calm Calm - N/A   Unknown
11:35 PM 33.8 °F - 33.8 °F 100% 29.96 in 10.0 mi Calm Calm - N/A   Unknown
11:55 PM 33.8 °F - 30.2 °F 87% 29.96 in 7.0 mi Calm Calm - N/A   Unknown